Wind_Speed
6 7 8 9 8 5 2 2 1 1 0 1 1 0 2 3 1 2 4 4 2 2 2 2 4 3 1 3 9 6 7 3 3 4 3 5 23 27 17 17 20 19 20 20 20 19 19 18 16 16 15 15 15 14 14 13 12 12 13 13 12 12 13 14 14 15 16 16 15 15 14 14 14 14 13 12 13 15 15 15 15 14 15 15 15 16 18 18 19 18 19 19 20 20 20 20 21
7 8 9 8 6 2 0 2 1 1 0 1 1 1 2 3 3 3 4 5 1 2 4 3 5 5 5 4 10 8 8 6 4 6 3 18 28 21 18 20 21 21 21 21 21 21 20 18 16 16 16 15 14 14 14 12 12 12 13 13 13 13 13 14 14 15 15 15 15 15 14 13 14 14 15 13 14 14 14 15 15 14 14 15 15 16 18 18 19 19 19 20 20 20 20 20 20
9 9 8 6 2 2 1 1 1 1 1 1 2 1 3 4 4 2 3 3 2 1 8 5 8 5 6 4 7 5 4 4 8 9 8 22 21 15 21 21 23 24 22 22 22 23 21 18 17 16 16 15 14 14 13 12 12 13 13 13 13 14 14 14 14 15 15 15 14 13 13 13 13 14 15 14 14 14 15 15 14 15 15 15 16 16 18 19 19 19 19 20 20 20 20 20 20
11 8 6 3 0 1 1 1 1 1 1 1 2 1 2 3 4 4 2 2 3 2 5 6 6 1 2 10 7 6 6 2 8 11 10 17 19 22 25 23 24 24 23 22 21 22 21 19 18 16 15 15 15 14 13 12 13 13 13 13 13 14 14 14 15 15 14 14 13 12 13 13 13 14 14 15 15 15 15 15 14 15 16 17 17 17 18 19 18 19 20 20 20 20 20 20 20
11 8 5 1 1 1 1 1 1 1 0 1 1 1 2 2 2 4 2 4 6 4 5 7 6 3 3 8 4 4 7 6 9 13 14 17 25 28 26 25 25 24 23 21 20 21 20 20 18 16 15 14 15 14 12 12 13 13 12 13 14 14 15 15 15 15 15 14 13 12 13 13 14 14 14 15 15 15 16 15 15 15 17 18 17 18 19 18 18 19 20 20 21 20 20 20 20
10 7 5 1 1 0 1 1 1 1 1 1 1 2 2 2 4 4 2 1 5 8 5 8 9 9 6 6 5 5 8 10 10 13 18 23 29 29 27 28 25 24 23 21 21 21 21 19 18 17 15 14 15 13 12 13 13 13 13 14 15 16 15 15 15 15 15 14 12 12 13 14 14 15 14 15 15 15 16 16 17 16 17 18 18 19 19 18 19 20 21 21 21 20 19 20 20
8 3 2 1 0 0 1 1 1 1 1 1 2 2 0 4 3 1 1 3 5 5 6 9 10 12 8 6 7 8 11 11 13 16 23 29 31 29 28 27 24 24 23 22 22 21 21 19 18 16 14 15 15 13 12 13 13 14 14 15 15 16 16 16 16 16 16 15 12 10 12 14 14 15 14 15 15 15 16 17 18 17 18 19 20 20 19 19 20 22 22 21 21 20 20 20 21
3 1 0 1 0 0 1 1 1 1 1 2 3 3 3 5 1 2 2 3 6 7 9 9 10 14 9 6 6 9 15 13 18 25 30 32 31 29 27 25 24 24 24 24 23 22 20 19 18 15 14 15 14 12 13 14 13 14 14 15 15 16 16 16 16 17 17 16 13 9 10 13 15 15 15 15 15 15 16 17 18 17 18 19 20 19 19 21 22 22 22 21 20 21 20 20 20
0 1 1 1 0 1 1 1 1 2 1 3 5 4 4 4 2 2 1 2 6 8 11 8 7 14 9 9 9 9 16 20 25 30 32 32 31 28 25 25 25 25 25 25 24 22 20 18 17 15 15 15 14 12 13 14 13 14 14 14 15 16 16 16 17 18 17 16 14 10 10 14 16 17 17 16 16 16 16 17 18 18 19 19 19 19 19 21 22 21 21 20 20 20 21 20 19
0 1 1 1 0 2 0 1 1 2 2 3 4 4 4 3 1 2 1 1 7 9 11 8 8 15 12 10 8 8 17 26 30 29 30 31 28 25 24 25 25 27 27 26 24 22 20 17 15 15 15 15 14 12 14 14 13 13 13 14 15 15 16 16 18 17 16 16 15 11 11 14 16 16 18 17 16 16 17 18 18 19 19 19 19 19 19 21 21 20 19 20 19 18 19 20 18
0 1 1 1 0 1 1 1 2 2 3 3 4 3 2 2 1 1 1 1 6 12 14 10 11 16 14 9 6 13 25 28 28 29 30 29 26 25 25 24 25 27 28 26 24 22 20 16 15 15 14 15 14 13 14 13 13 13 13 14 15 15 16 16 17 16 16 17 15 12 11 13 16 16 17 18 17 17 17 19 19 20 20 20 21 20 20 20 20 20 20 19 18 17 17 18 17
1 1 1 1 1 1 2 2 3 3 5 4 3 2 0 1 2 3 2 4 11 15 11 7 10 14 13 8 6 17 26 25 26 29 29 27 26 26 25 24 26 27 27 26 24 22 20 18 16 15 14 14 14 14 13 13 13 13 13 13 14 15 16 16 15 15 16 17 17 13 12 13 16 16 17 19 19 17 18 18 19 20 20 21 21 20 20 20 20 20 19 17 17 17 17 17 16
1 1 2 1 2 0 1 2 3 4 4 2 3 3 2 2 4 2 1 5 10 12 8 7 11 13 12 8 8 15 20 22 27 30 29 27 27 26 25 26 27 27 26 25 23 22 20 18 17 15 14 14 13 13 13 14 13 13 14 14 14 14 16 16 15 15 15 17 18 15 13 13 15 17 18 18 19 18 18 18 19 20 20 21 21 20 20 19 20 20 19 17 17 17 16 16 16
2 2 2 0 2 1 0 1 3 3 3 3 2 3 2 4 2 2 2 5 8 10 10 11 13 13 12 10 8 9 15 25 30 30 28 26 27 26 26 27 27 26 24 24 22 21 19 18 17 16 15 14 13 13 13 13 13 14 14 14 14 14 16 16 16 16 16 17 18 17 14 13 14 16 19 18 18 18 18 19 19 19 19 19 19 19 19 19 20 20 19 18 17 17 17 16 16
3 2 2 1 1 1 1 1 2 3 3 4 3 4 5 2 2 1 1 5 8 10 12 12 10 8 11 12 9 11 19 30 32 29 27 27 27 26 26 26 25 24 23 22 21 21 20 19 17 16 16 15 14 13 13 13 13 14 13 14 14 15 17 17 16 16 16 17 18 19 16 14 14 16 18 18 18 18 19 19 18 18 18 17 18 18 18 18 20 20 19 18 17 17 18 18 17
3 2 1 0 0 0 1 1 2 3 3 4 5 5 7 3 3 2 2 2 7 11 11 10 6 6 11 11 13 20 29 34 31 29 29 28 27 25 25 23 22 22 21 21 20 20 20 19 18 17 16 15 15 15 14 13 13 14 13 14 15 16 17 17 16 15 15 16 18 20 18 15 15 15 16 17 18 18 19 18 17 17 17 17 17 17 18 17 19 20 19 19 18 18 18 18 17
1 2 1 1 1 1 2 2 2 4 3 6 8 5 6 6 3 0 1 3 7 11 8 8 7 10 13 14 22 30 34 34 30 30 29 27 26 24 23 21 21 20 20 21 20 20 19 19 17 17 16 15 16 15 15 13 13 14 14 13 15 16 17 17 15 15 15 16 18 20 19 16 15 15 15 17 17 17 18 18 17 17 16 16 17 17 17 17 17 19 19 19 19 19 18 18 17
2 1 1 0 1 1 3 3 2 5 5 7 9 5 6 8 5 1 1 2 8 11 8 10 12 13 16 23 30 33 35 33 29 29 27 24 24 22 21 21 21 20 21 20 19 19 18 18 17 16 16 16 17 16 15 14 14 15 14 14 14 14 16 17 16 15 15 17 19 20 20 18 16 15 15 15 16 16 16 16 16 16 15 16 17 17 18 18 18 19 20 19 18 18 17 17 17
2 1 2 2 2 2 3 4 4 5 7 8 7 6 5 5 6 4 4 8 12 13 11 13 16 16 20 26 31 31 32 30 27 27 25 24 23 22 21 21 21 21 21 21 20 19 18 18 17 16 15 16 18 17 16 15 15 16 16 15 15 14 15 16 16 15 16 17 19 20 20 19 18 17 16 15 15 15 15 15 15 15 16 17 18 19 19 19 20 20 20 18 17 16 15 15 15
2 2 1 3 3 2 3 5 5 5 8 9 7 7 6 6 4 3 7 11 12 13 13 15 19 20 20 22 26 28 27 26 26 25 24 23 22 22 22 22 22 22 22 22 22 20 18 18 17 16 15 17 19 18 17 16 16 16 16 17 15 15 16 15 15 15 16 17 18 19 19 18 18 17 16 16 16 16 16 15 15 16 17 18 18 19 19 20 21 21 19 18 16 14 13 13 13
2 2 2 3 2 1 5 7 6 7 8 9 7 9 10 7 4 3 9 11 9 10 13 18 22 23 21 20 23 25 24 24 23 23 22 22 21 21 22 22 22 22 23 23 23 21 19 19 17 16 15 17 18 18 18 17 17 17 17 17 15 16 16 16 15 15 16 16 17 17 18 18 17 17 17 17 17 17 17 17 17 18 18 19 19 20 20 20 21 20 19 18 17 15 13 11 10
2 2 3 4 2 1 6 8 7 9 7 7 8 9 8 5 3 3 7 9 6 8 14 20 21 22 22 19 21 23 22 21 21 21 21 22 21 20 21 21 21 22 24 24 23 22 20 19 18 17 16 17 18 18 18 18 18 18 17 17 16 16 16 16 16 16 16 15 16 16 17 17 16 18 19 19 19 19 19 19 19 19 19 19 19 19 20 19 19 18 17 16 15 14 13 12 11
2 2 4 6 4 2 7 9 9 9 7 7 8 7 5 4 4 3 5 4 3 10 16 20 20 23 25 22 20 20 18 19 20 21 22 22 22 21 22 22 21 23 25 24 23 23 22 20 19 18 17 17 18 18 18 18 18 18 18 17 16 16 16 17 17 16 15 15 15 16 17 17 17 19 19 19 19 19 19 19 18 18 18 17 17 16 16 15 14 13 11 10 10 10 10 10 11
3 3 6 8 7 4 7 9 9 9 7 6 6 5 6 6 6 5 4 2 1 13 18 19 23 25 25 20 18 18 17 19 20 21 23 23 22 22 24 23 23 25 24 23 23 23 22 21 19 18 18 18 18 18 17 17 17 19 19 17 16 16 16 16 17 16 16 16 16 15 16 17 18 19 19 19 18 17 16 15 15 15 15 15 14 13 12 11 10 9 8 7 6 6 7 9 10
5 5 6 7 7 5 7 8 8 9 6 5 7 6 5 5 6 7 5 5 6 10 19 18 22 22 19 18 18 17 16 19 20 21 22 21 22 22 23 22 23 25 24 24 24 22 22 21 19 18 18 18 18 18 17 16 17 20 19 18 17 16 15 16 17 17 17 17 16 14 14 16 18 19 19 18 16 14 12 11 11 12 12 12 12 11 10 9 8 7 5 4 5 6 7 10 11
8 8 5 4 6 8 7 5 4 7 5 7 9 6 5 6 7 8 7 7 8 5 19 18 19 18 16 18 18 16 15 17 20 21 21 22 22 22 22 22 23 24 25 25 25 22 21 21 19 19 18 17 19 19 17 17 18 20 20 18 17 16 16 16 17 18 17 17 15 13 12 14 16 16 15 15 14 12 10 9 9 10 10 10 10 10 9 7 6 4 3 3 4 6 9 10 11
8 8 6 8 10 9 6 5 1 4 6 7 8 7 8 7 5 5 3 4 5 8 20 17 17 16 16 17 15 17 17 19 22 21 21 21 22 23 22 23 23 24 25 25 26 23 20 20 19 19 18 17 18 19 18 18 19 20 19 18 17 16 17 18 18 17 17 16 14 13 12 12 12 12 12 12 12 11 10 8 8 8 9 10 10 9 7 5 3 3 3 4 4 6 10 10 10
6 10 11 13 12 10 8 5 3 2 2 5 6 9 10 5 3 3 3 3 2 9 16 16 17 13 15 17 14 15 16 21 24 22 21 21 21 23 23 24 24 24 25 26 27 24 21 21 19 18 18 18 18 18 18 19 18 19 19 18 17 17 18 18 17 17 17 16 15 13 11 11 11 11 11 11 11 11 10 9 9 9 10 10 10 8 6 4 3 3 5 6 5 7 10 10 10
6 9 10 11 10 8 5 5 1 3 2 4 7 7 7 5 2 3 2 1 4 6 8 14 16 12 14 15 12 11 15 22 23 21 23 23 24 24 25 25 25 25 26 26 27 25 23 22 20 19 18 18 19 18 18 18 18 19 18 17 17 18 19 18 17 16 16 15 15 14 13 11 11 11 10 11 11 10 9 10 10 10 10 10 10 8 6 5 4 4 5 5 4 6 9 9 11
6 6 7 9 6 3 3 4 7 5 2 5 2 3 4 6 5 5 4 5 8 7 6 11 13 11 12 13 11 9 14 19 20 23 25 25 26 27 26 25 26 27 26 27 28 26 24 22 21 20 19 18 19 18 18 18 18 19 18 17 17 19 19 18 17 15 14 14 13 14 14 13 12 10 10 11 11 10 10 11 11 11 11 10 10 8 6 6 4 3 4 4 3 5 7 8 11
7 6 4 5 3 4 5 3 8 9 3 10 4 3 5 7 6 5 4 6 10 11 7 6 10 12 11 11 11 8 12 16 20 25 27 28 28 27 27 26 27 27 26 28 29 27 24 22 22 22 20 19 19 18 18 19 18 19 18 18 17 19 20 18 17 15 13 13 13 13 14 14 13 11 11 11 12 11 11 11 11 11 10 10 10 9 8 6 5 5 5 4 4 6 6 6 9
6 6 1 3 4 5 5 5 10 10 6 10 6 3 4 6 7 4 4 7 10 12 9 5 9 14 12 11 10 8 11 14 19 25 27 30 30 28 27 26 28 28 27 29 28 27 25 23 23 22 21 21 20 18 18 19 18 18 18 18 18 19 20 18 16 14 13 13 13 14 14 14 13 11 11 12 12 12 11 11 11 11 10 9 9 8 7 7 5 5 5 5 6 7 6 7 8
1 4 4 5 5 5 3 5 10 9 8 6 4 3 3 6 8 5 5 7 9 11 9 6 8 13 13 11 9 9 10 9 13 23 28 31 30 29 28 28 30 28 27 28 28 27 25 23 23 22 21 21 21 20 19 19 19 18 18 18 19 19 20 18 16 15 13 13 14 15 15 14 12 11 12 12 13 12 12 12 11 10 9 8 8 8 7 7 5 5 6 5 5 5 6 7 8
2 2 4 4 7 7 4 5 9 9 9 5 2 3 3 6 9 7 6 7 8 10 7 5 7 12 13 10 9 9 9 7 10 20 29 30 29 29 29 31 32 29 28 28 27 27 24 24 23 21 21 20 21 22 20 20 21 20 18 18 19 19 19 18 16 15 15 14 14 15 15 14 12 11 11 12 12 12 12 12 10 9 8 8 9 8 7 7 6 6 6 5 4 4 5 7 7
1 3 4 2 5 6 6 6 8 12 10 6 4 4 5 9 10 7 6 6 7 8 5 2 3 10 13 10 9 9 8 8 11 23 29 29 29 29 30 33 32 30 29 28 28 27 24 24 23 21 22 21 21 21 21 21 21 20 19 18 19 19 19 18 16 15 16 15 15 15 16 15 14 13 12 11 11 12 12 11 10 9 9 9 9 8 8 7 7 6 5 5 4 4 6 7 6
3 1 3 5 4 4 6 4 8 15 10 6 7 6 7 10 9 8 7 5 6 6 4 2 1 7 12 9 8 9 8 9 14 25 29 27 29 30 31 33 31 30 30 30 29 28 26 25 23 22 22 22 22 21 22 23 22 21 20 20 20 20 19 18 17 17 17 17 17 16 17 16 15 14 13 12 12 13 12 11 10 9 9 8 8 8 8 8 7 6 5 5 4 4 5 5 3
5 6 1 7 7 4 7 5 8 13 7 5 7 6 8 10 8 9 8 7 7 6 5 4 1 6 10 9 10 10 8 10 16 23 28 28 30 32 32 31 29 29 31 32 30 28 28 26 24 23 23 22 22 23 24 24 23 22 21 22 22 22 20 19 20 19 17 17 17 17 17 17 15 15 14 13 13 13 13 12 10 10 10 8 8 8 7 7 7 6 5 4 4 4 4 3 2
7 6 3 4 6 6 8 7 10 11 4 4 7 7 7 7 7 8 8 9 9 8 7 5 4 6 8 7 10 10 7 10 14 17 24 29 30 31 30 29 30 31 31 32 31 29 29 27 25 25 24 23 22 24 24 22 22 21 21 21 21 20 20 21 22 20 17 16 16 17 17 17 16 14 14 14 13 13 13 12 11 11 10 8 8 8 8 7 6 6 5 4 4 2 3 3 3
7 5 1 1 3 4 5 5 10 10 2 4 9 8 6 5 6 7 8 7 8 7 5 3 3 5 7 5 6 9 9 11 11 12 20 27 30 30 29 28 32 34 32 32 31 30 29 27 27 27 26 24 23 24 24 22 20 20 19 16 17 20 20 20 21 20 18 15 14 16 16 17 16 14 14 14 13 12 12 11 10 10 10 9 8 8 8 7 5 5 4 3 3 2 2 3 3
6 4 1 2 4 7 5 6 11 8 2 6 9 6 4 5 5 5 6 5 4 5 4 1 2 3 5 5 3 5 9 13 12 12 16 24 29 29 27 28 31 33 32 31 31 30 29 29 28 28 26 24 23 24 24 23 20 19 16 12 15 21 20 18 19 19 18 14 13 15 15 16 16 14 13 13 12 11 11 10 9 9 9 8 7 8 8 6 5 5 3 3 3 3 3 2 2
6 5 5 4 6 7 5 8 11 6 4 8 10 6 1 4 6 5 4 3 3 6 6 3 5 3 3 4 3 3 5 11 14 12 14 20 25 27 28 29 31 32 31 31 32 30 30 30 30 28 26 25 24 23 24 23 20 19 16 12 16 20 19 18 19 19 17 14 14 15 15 15 15 15 13 11 11 10 10 9 9 8 8 7 7 7 7 6 6 5 4 4 3 4 4 3 3
5 5 8 9 11 9 6 10 11 5 4 8 9 5 1 3 7 7 5 6 6 6 8 8 8 6 4 5 6 5 4 7 13 13 14 19 23 26 28 30 30 31 31 32 32 31 31 32 31 29 27 26 24 23 24 23 20 21 18 15 17 19 19 20 20 20 18 15 15 15 15 14 14 15 13 12 11 10 9 9 8 8 8 8 7 7 6 6 6 6 5 4 3 4 4 4 5
5 5 9 12 12 10 11 15 12 4 4 11 9 4 2 3 6 8 7 8 9 8 9 11 9 8 7 6 7 6 5 5 10 12 13 18 22 24 26 29 31 31 31 32 32 31 32 33 31 29 27 26 26 23 24 23 21 21 20 18 19 19 21 21 20 19 18 16 16 15 15 14 13 14 13 12 12 11 10 9 9 9 8 8 7 7 7 7 6 6 6 5 5 4 4 4 5
5 6 6 11 13 12 15 17 11 3 4 9 8 2 4 4 6 9 9 8 9 10 11 11 11 11 10 9 8 8 7 5 7 11 13 17 22 25 27 29 31 32 32 31 31 31 33 33 32 30 27 26 27 25 23 23 23 23 21 19 21 21 21 21 20 19 17 16 16 16 15 14 14 14 13 12 12 12 11 10 10 9 9 8 7 7 8 7 7 7 7 6 6 6 4 4 5
7 7 4 9 14 13 13 12 6 1 4 5 8 3 4 2 4 8 10 9 10 12 14 13 14 14 12 10 10 9 8 6 6 9 13 18 22 27 29 30 31 33 33 32 31 32 33 32 31 30 27 26 27 27 24 24 24 24 22 21 23 23 20 19 20 20 18 16 17 16 15 15 14 14 13 12 12 12 11 10 10 10 10 9 8 8 8 7 7 7 7 7 8 7 6 5 4
7 5 5 5 7 8 10 10 6 2 2 5 10 7 4 2 4 7 8 10 12 12 13 14 14 15 13 11 11 10 8 6 5 7 13 21 25 28 31 32 31 32 34 33 32 33 33 32 31 30 27 25 28 28 26 26 25 23 22 23 25 24 21 20 20 21 20 18 17 16 16 16 15 15 13 12 12 12 12 11 11 11 11 10 9 8 8 8 8 8 8 8 9 9 7 6 5
6 2 3 3 2 4 6 7 5 4 2 7 13 10 7 2 4 7 8 10 13 13 11 12 14 14 14 12 11 11 9 7 6 5 11 23 27 29 31 31 31 32 33 33 32 32 33 32 32 31 28 26 28 28 27 27 26 24 23 23 23 23 22 21 22 23 22 21 20 18 16 16 16 16 14 13 13 13 13 13 13 12 11 11 10 9 9 10 10 9 8 9 9 9 8 7 6
4 1 4 2 3 2 3 4 5 5 5 8 14 11 8 4 4 10 12 7 11 15 13 15 16 14 14 12 10 11 9 9 8 4 9 18 22 26 29 31 31 32 32 32 32 33 34 33 33 32 29 29 29 28 28 27 26 25 23 22 22 22 23 22 22 23 24 24 23 20 18 17 17 16 16 16 15 13 13 14 14 13 12 12 13 11 10 10 12 10 8 8 9 9 8 7 7
2 3 5 3 1 1 2 4 5 6 5 5 12 11 5 4 4 12 18 11 10 14 13 14 16 14 13 12 10 10 9 9 8 5 8 12 15 20 26 29 30 31 32 32 32 33 33 33 34 33 31 31 31 29 28 28 27 26 24 23 22 22 22 22 21 21 24 25 23 22 20 18 18 17 17 17 17 15 14 15 15 14 13 13 14 12 11 11 12 11 9 8 9 9 9 8 7
3 4 4 4 3 2 1 3 2 4 5 3 12 12 4 3 2 6 14 13 10 11 10 12 13 13 13 12 11 9 9 10 9 6 8 10 14 20 25 28 29 30 32 33 33 34 34 33 34 34 33 32 31 30 29 28 28 27 25 23 22 23 22 22 20 19 22 24 23 23 21 19 19 18 18 18 17 16 15 15 16 15 14 13 13 13 12 12 12 10 10 8 8 8 8 8 8
2 4 5 5 4 4 3 4 3 4 4 2 7 7 2 2 2 7 5 6 7 8 7 8 9 9 10 10 10 10 10 10 8 7 7 10 17 21 22 26 29 31 32 32 33 34 33 34 34 34 34 32 32 30 28 28 28 28 27 23 22 23 22 22 21 17 20 22 22 22 21 20 19 18 18 18 16 16 16 15 15 16 15 13 14 14 12 12 12 11 11 9 7 8 8 8 8
3 2 5 3 4 4 2 4 4 4 3 2 2 1 2 2 3 6 2 6 6 8 7 7 8 8 8 9 9 10 10 9 9 8 7 11 20 25 24 24 27 30 31 31 34 35 34 35 35 35 34 33 33 31 29 29 28 28 28 25 22 23 21 22 22 18 18 21 20 20 20 19 18 17 17 17 16 16 16 15 15 16 16 15 14 14 13 12 12 12 12 11 9 8 9 8 8
2 0 3 4 4 6 2 3 2 2 4 1 1 2 2 1 1 6 4 6 5 8 9 9 9 9 9 9 9 9 9 10 9 5 2 3 6 13 20 23 25 29 30 30 32 35 35 35 35 35 33 33 33 32 30 29 28 28 29 26 23 23 22 22 24 21 19 21 20 18 18 17 17 17 17 17 16 17 16 15 16 16 16 16 15 14 13 12 12 12 12 12 11 9 9 10 9
3 1 4 5 2 5 3 1 2 3 3 1 2 2 1 0 0 4 1 4 4 6 10 10 9 10 9 8 8 8 8 7 4 6 9 12 12 3 8 14 18 22 26 30 34 36 36 37 36 35 33 31 32 33 31 30 29 28 28 28 25 23 23 22 23 23 21 21 20 20 19 17 18 18 18 17 16 17 17 17 17 17 16 16 16 14 14 14 13 12 13 13 11 10 11 11 10
5 3 2 1 3 2 0 2 2 1 3 2 3 3 2 1 0 3 3 1 2 3 8 10 9 10 7 5 6 5 4 5 6 8 8 6 7 8 4 7 13 13 9 11 20 24 26 29 32 35 36 35 33 32 31 30 30 28 28 29 26 23 23 23 22 22 21 21 21 22 22 20 18 18 19 18 17 17 17 18 19 19 16 16 16 16 15 15 14 13 13 14 12 11 12 12 11
2 3 3 1 3 3 2 2 3 3 3 3 2 2 2 1 2 2 3 3 6 8 3 6 7 6 6 6 5 5 5 5 6 7 6 6 10 9 8 19 22 17 12 10 12 13 15 17 21 25 28 31 32 31 31 30 29 28 27 27 27 25 24 23 23 22 22 22 21 21 23 22 19 18 19 19 18 17 16 16 19 19 17 16 17 16 15 15 16 15 14 14 13 11 12 13 11
2 3 1 1 1 0 1 1 1 5 4 3 4 1 3 2 2 1 2 4 6 8 7 6 9 9 9 8 7 6 6 6 6 7 6 5 8 11 13 15 16 15 14 17 21 23 24 24 25 25 23 23 24 25 27 27 27 28 27 27 27 26 25 24 24 23 23 23 22 21 23 23 22 20 20 19 20 19 17 16 18 19 17 16 17 17 16 15 16 16 16 15 13 12 12 13 13
3 2 2 2 2 2 1 3 3 2 4 4 5 3 2 2 2 2 5 5 5 6 5 7 10 11 10 9 9 8 7 8 8 8 8 8 11 12 12 12 14 18 20 23 27 29 28 28 29 28 26 23 21 22 24 23 22 22 22 24 26 26 25 25 26 25 24 23 23 22 22 22 22 22 22 21 21 21 21 20 19 20 19 17 18 18 18 16 16 16 16 15 15 14 14 14 14
Wind_Direction
184 168 147 137 141 122 131 223 49 355 97 110 241 150 81 86 150 127 121 183 145 154 193 108 112 93 11 126 139 103 55 120 154 140 175 147 148 153 158 166 165 162 161 156 153 152 150 146 138 134 132 127 123 120 119 118 115 112 110 111 110 107 104 103 103 100 101 104 105 106 109 113 117 121 123 122 119 120 123 126 129 127 125 120 116 115 113 109 109 109 110 110 111 113 113 114 116
179 159 144 135 147 144 209 222 69 342 71 30 280 139 107 107 140 137 158 188 199 166 120 74 82 51 309 126 117 88 46 3 87 110 98 131 139 149 161 167 165 162 160 157 156 154 152 147 140 138 133 129 125 123 121 119 115 112 110 109 109 108 106 104 100 100 103 105 105 108 113 119 122 124 126 124 121 121 123 124 126 127 124 118 115 113 113 113 112 111 112 113 114 114 113 113 115
170 147 146 143 156 210 276 244 107 356 22 17 291 36 92 119 142 156 209 208 331 67 102 84 83 83 261 121 84 77 75 5 100 104 108 133 137 155 165 166 163 160 159 158 158 155 152 146 141 139 133 131 128 127 124 120 115 111 111 110 112 111 108 105 103 103 106 106 106 110 116 120 121 124 127 126 126 125 124 125 128 130 126 120 117 115 114 114 114 114 114 115 116 116 114 114 116
160 139 144 155 74 240 8 13 102 38 29 8 299 1 76 120 147 144 182 127 47 9 112 125 93 54 225 109 96 80 98 74 107 111 127 147 148 157 162 162 161 158 158 158 157 155 151 145 140 138 135 134 132 130 126 123 117 113 114 114 115 114 111 108 106 107 108 110 110 112 115 117 121 125 129 127 126 124 124 126 128 128 127 124 119 116 116 116 116 118 118 117 118 117 116 116 118
158 152 170 185 1 286 69 12 42 45 46 137 251 341 52 90 108 96 85 120 127 241 199 146 124 132 103 98 120 108 115 116 108 115 126 148 151 154 158 157 157 155 156 155 155 153 150 145 139 139 138 136 135 131 129 125 120 118 117 117 117 116 114 111 108 109 111 112 110 112 115 118 123 126 129 127 125 125 125 127 126 125 124 122 120 120 120 118 117 120 120 118 119 118 116 117 119
162 164 193 206 14 282 63 1 77 103 271 212 140 29 20 47 41 57 21 201 179 232 195 121 123 122 90 65 71 104 130 127 122 125 129 143 151 153 154 153 152 151 152 152 154 153 150 144 140 142 140 138 136 133 131 125 122 121 120 120 120 118 116 112 110 110 111 111 109 113 117 119 122 125 127 127 127 128 129 127 126 126 125 122 122 122 122 121 120 121 119 117 118 116 115 118 121
165 158 195 167 144 277 86 308 208 154 317 7 98 102 46 54 38 118 157 209 171 189 128 109 127 108 83 87 84 99 116 124 131 136 137 143 149 149 149 149 148 149 151 152 155 154 150 143 142 144 142 141 137 135 131 125 125 123 122 122 121 120 118 116 113 112 112 111 110 116 119 119 121 124 126 128 129 128 130 127 126 128 127 124 124 124 124 123 121 120 118 115 115 115 115 117 122
166 156 209 109 249 81 121 267 210 146 48 79 117 145 137 98 145 188 160 192 140 129 112 117 122 95 83 98 94 107 111 120 132 136 139 141 144 145 146 146 146 149 152 154 155 153 148 144 145 146 146 143 137 137 131 127 126 123 124 124 123 123 121 119 116 114 113 112 113 119 121 120 121 125 126 127 128 127 128 127 126 128 126 125 126 127 126 123 120 120 118 116 115 115 116 119 123
22 347 246 80 260 283 166 250 160 114 75 125 127 132 119 112 142 125 225 234 118 113 111 123 116 99 101 97 95 105 109 123 130 134 139 140 142 142 146 149 149 151 152 153 151 149 146 146 147 148 148 140 137 137 131 128 124 123 125 125 126 124 122 119 117 115 113 113 116 125 126 120 121 127 126 124 125 126 128 128 128 128 127 127 127 126 125 123 122 122 120 119 117 116 118 121 124
40 28 198 112 230 291 295 233 136 102 131 135 114 119 106 101 121 110 217 139 108 103 101 107 103 108 113 101 96 111 121 130 132 134 139 140 142 144 148 153 154 152 152 151 148 147 145 147 149 149 146 139 140 139 130 127 124 126 126 126 126 123 121 119 117 115 116 116 117 124 125 118 120 125 124 122 123 124 127 129 130 130 130 130 129 127 126 125 124 123 122 120 116 116 120 124 125
138 1 176 99 3 291 294 126 117 131 150 129 93 89 88 142 167 84 45 63 102 103 107 108 104 109 108 98 93 121 131 136 136 138 142 141 143 146 149 154 156 153 151 149 147 146 145 148 149 149 146 142 143 138 130 128 128 128 126 127 125 122 120 118 117 118 120 118 115 117 117 116 118 121 122 123 125 124 126 128 130 132 132 132 130 129 129 128 126 124 124 120 115 116 122 128 129
178 296 104 51 324 283 298 106 145 163 134 124 121 110 204 177 109 93 98 115 114 113 125 125 120 117 106 103 113 130 137 141 142 142 143 142 143 147 149 152 154 153 150 148 148 147 148 150 150 150 147 144 143 136 131 130 130 127 127 127 124 122 119 118 119 120 121 117 115 114 114 115 115 118 122 123 124 126 128 128 130 131 131 131 130 130 130 129 127 126 125 122 118 117 119 126 130
170 196 94 9 277 338 1 113 162 144 114 156 161 139 155 81 52 36 72 120 118 118 126 125 130 121 109 116 129 138 144 146 145 143 143 141 143 147 149 151 152 152 151 150 150 150 151 150 150 150 147 145 141 135 133 133 131 129 130 128 124 123 120 121 122 122 121 117 116 114 113 111 110 113 117 120 123 126 127 127 127 128 129 129 129 130 129 129 128 128 128 126 123 120 119 121 126
156 158 107 312 314 50 40 130 142 119 129 193 134 89 66 47 33 325 22 103 111 119 120 126 130 112 115 132 137 150 150 148 147 144 141 141 144 147 148 149 151 152 153 153 152 152 151 148 150 151 149 146 141 137 137 135 133 132 132 130 128 127 123 123 124 124 122 119 117 117 117 114 111 112 114 118 122 125 126 125 125 127 129 129 130 130 130 131 131 130 132 130 127 126 126 125 124
154 131 113 225 347 80 242 112 128 123 138 162 116 91 85 51 219 182 68 105 109 123 120 131 140 115 140 152 149 158 148 147 148 144 140 139 143 143 145 148 151 154 155 156 154 153 151 150 154 155 152 147 144 142 139 138 136 134 133 132 131 129 126 125 127 126 123 121 119 118 118 115 112 111 114 117 120 124 126 125 126 126 127 129 130 131 132 134 135 136 135 133 130 132 132 132 133
153 128 113 85 59 171 236 140 159 135 133 146 129 129 121 126 232 151 172 185 124 129 129 150 169 127 148 150 139 145 144 145 145 141 138 136 137 138 143 147 150 154 156 158 156 155 154 155 160 158 153 149 148 146 142 139 137 135 134 134 133 132 130 129 130 126 121 119 118 117 116 116 114 113 114 114 117 122 124 124 126 126 126 128 130 133 135 138 141 142 139 137 135 134 133 133 138
126 107 86 60 173 198 184 187 200 136 141 144 139 175 145 131 237 255 258 236 142 133 134 145 129 116 135 133 134 140 142 144 141 138 136 133 134 136 143 148 150 154 158 159 157 158 159 162 164 159 155 153 151 148 143 140 139 137 135 136 136 137 134 132 133 127 122 119 118 116 116 118 116 114 113 112 115 118 121 123 125 126 127 129 131 134 137 140 144 144 142 141 137 132 131 131 134
121 87 84 262 219 176 177 181 158 130 145 152 151 173 140 140 186 182 68 186 136 124 120 124 117 118 127 129 134 139 142 144 142 139 137 137 138 141 147 152 155 158 159 160 160 164 166 165 165 162 158 157 155 150 145 145 145 141 139 140 139 139 136 134 136 131 127 124 121 117 117 119 119 119 115 114 115 117 120 123 126 128 130 132 133 135 137 139 142 143 143 140 134 128 127 127 130
146 115 106 253 225 167 182 164 144 145 150 153 151 133 123 177 184 156 146 142 129 123 128 130 122 123 127 131 137 141 145 147 145 142 141 142 145 148 151 155 159 160 161 162 165 170 170 167 167 165 162 161 159 153 151 154 151 146 145 144 141 141 138 136 136 133 131 128 123 119 118 120 123 124 120 119 118 119 122 125 127 130 132 134 134 135 135 138 140 141 141 137 132 127 126 127 131
170 123 134 250 221 181 172 165 159 149 145 146 154 138 145 219 210 156 148 132 130 136 142 138 131 134 138 140 142 144 146 147 146 145 145 147 149 151 153 157 161 164 166 166 167 172 171 166 169 170 167 165 164 159 157 158 155 152 150 147 146 144 140 139 137 135 135 129 124 121 120 121 124 125 125 126 125 126 127 129 131 133 134 134 134 135 135 137 140 142 143 143 142 138 134 133 136
170 142 185 227 226 198 155 160 158 142 144 148 156 148 154 202 220 158 142 130 136 148 149 144 139 141 143 144 144 145 145 146 147 147 148 148 150 154 156 160 163 165 165 164 166 170 169 168 173 174 171 169 169 165 160 162 161 157 154 151 149 147 144 143 141 138 137 132 127 125 125 126 129 131 132 132 132 132 132 134 137 137 135 134 135 137 138 141 143 146 149 152 153 152 151 148 148
162 203 214 211 217 113 143 150 149 142 146 148 149 149 154 181 184 149 136 131 148 155 148 143 140 142 145 145 143 143 146 148 149 150 151 151 151 153 156 159 159 160 161 162 166 167 167 173 178 176 174 172 172 168 162 165 165 160 158 155 152 151 148 146 143 139 139 137 133 131 130 131 133 135 134 133 133 133 133 134 135 136 135 133 136 139 141 144 147 149 151 154 157 159 160 159 163
160 238 227 218 214 156 143 147 148 146 149 155 153 150 143 140 143 111 94 111 150 145 143 141 140 142 144 143 141 144 149 151 153 153 154 154 154 154 156 158 155 156 159 161 165 165 167 177 181 179 177 174 173 170 165 166 167 164 160 157 157 156 153 150 146 142 141 140 136 134 134 134 135 135 134 134 134 134 133 133 135 136 137 138 140 142 143 146 149 152 155 160 166 171 173 173 176
190 222 212 218 214 171 137 140 151 151 150 157 149 142 143 145 138 88 59 359 60 136 140 138 138 142 144 142 143 147 149 152 156 155 156 157 157 156 157 159 158 158 158 160 164 165 170 179 182 181 179 177 175 173 170 168 167 166 162 160 162 161 158 155 149 145 144 142 139 137 136 136 137 137 137 136 136 136 134 136 139 141 144 146 149 151 153 155 159 164 169 179 192 200 200 196 195
220 212 190 202 193 145 121 133 156 153 149 153 138 136 142 129 105 76 57 7 357 137 140 135 139 144 145 143 145 148 151 154 155 155 157 159 157 156 158 160 161 161 161 161 164 168 174 181 183 182 181 179 176 174 173 169 170 170 167 165 165 164 162 158 153 150 148 144 142 141 140 140 140 141 143 142 141 139 138 142 146 149 152 154 155 157 158 159 161 166 175 194 203 204 198 190 190
216 205 161 156 140 121 108 104 150 151 155 156 139 129 91 58 72 58 31 15 335 165 141 137 143 144 143 146 149 151 154 157 158 158 159 161 160 160 163 162 164 167 167 165 165 168 176 182 183 181 182 180 175 176 175 172 172 173 171 169 168 167 163 160 158 156 153 149 146 146 147 149 148 148 149 149 147 144 147 150 149 152 157 159 159 157 157 156 160 174 198 209 210 202 187 173 172
206 185 101 78 88 95 77 45 275 170 162 164 142 120 83 40 60 69 350 333 317 154 140 143 146 145 147 148 152 153 158 163 163 162 159 161 162 163 166 164 167 172 170 168 167 168 174 179 179 180 182 180 177 178 179 176 174 174 172 171 170 166 162 161 161 161 158 154 153 155 157 159 160 158 159 158 156 158 161 158 153 154 157 158 156 155 153 154 172 203 205 191 200 198 180 170 168
174 148 95 80 84 86 77 66 292 289 149 165 125 106 96 57 44 109 237 290 6 133 140 150 149 150 152 152 158 157 162 166 164 163 161 164 166 165 167 167 170 172 172 171 170 167 170 174 176 181 182 182 183 182 181 178 175 176 175 172 169 165 163 163 164 166 164 159 160 165 166 169 169 165 167 170 168 169 169 165 160 160 160 158 152 149 146 148 175 190 182 173 178 186 180 184 188
137 134 103 94 87 83 98 111 112 340 316 183 128 104 102 93 87 130 177 160 100 120 144 156 153 152 151 154 163 161 167 167 165 169 166 166 168 168 169 170 172 173 174 175 172 168 167 171 175 180 183 184 185 186 185 180 178 179 177 174 171 168 167 166 166 169 168 164 165 169 172 177 178 173 173 179 178 174 171 166 161 159 162 161 154 151 152 155 164 171 167 166 174 186 182 193 202
117 113 110 110 86 95 188 147 128 129 247 256 139 120 126 115 148 172 157 146 137 139 164 162 155 155 150 156 165 166 170 167 168 171 168 167 168 169 171 172 175 175 175 173 172 170 168 171 177 182 186 184 183 186 186 182 181 181 179 177 174 171 171 169 169 172 172 171 172 174 177 180 181 180 180 180 179 177 172 168 163 158 158 161 161 162 165 163 173 190 186 194 214 196 181 184 196
116 98 95 126 126 171 206 169 138 139 213 274 283 150 160 136 159 174 144 154 150 154 175 170 159 159 152 160 166 167 173 172 169 168 166 166 167 170 171 170 173 176 174 172 172 172 170 174 179 183 186 184 182 184 184 183 183 183 183 182 178 174 173 171 170 171 172 175 177 177 179 181 178 177 180 177 176 178 175 172 168 162 159 162 165 166 174 180 191 200 198 209 209 190 181 168 179
130 116 89 178 153 166 194 178 165 156 185 254 268 141 149 141 159 169 142 154 152 158 174 186 168 158 157 166 167 169 177 176 165 161 162 164 167 171 170 166 170 175 174 173 173 171 172 177 181 182 184 183 182 181 183 184 184 183 184 185 182 177 175 172 169 165 164 168 173 174 178 180 175 172 174 173 173 177 177 173 169 168 166 166 167 171 184 191 189 187 188 196 190 183 183 165 159
147 134 165 195 162 154 182 191 191 173 163 227 258 152 146 139 156 164 146 145 150 161 173 198 180 157 161 169 166 172 176 169 157 155 158 161 167 171 168 164 169 174 174 173 172 170 173 180 181 181 180 180 180 180 179 180 180 179 178 180 181 179 177 174 168 162 159 164 169 172 177 179 177 175 173 171 171 174 176 174 172 172 172 174 182 186 188 184 176 178 180 181 176 175 180 172 164
279 126 156 183 159 155 160 181 201 193 170 194 215 147 145 136 143 150 149 141 151 164 169 201 190 160 164 167 166 176 172 161 152 153 158 162 167 168 165 165 169 171 172 172 171 170 172 177 179 177 175 173 174 175 174 172 173 173 171 173 177 177 176 172 168 165 163 167 172 174 177 180 184 184 180 176 173 172 174 177 179 181 181 185 192 193 189 183 177 175 172 168 165 172 184 181 179
100 112 120 121 149 168 181 170 179 184 177 173 158 143 142 139 140 145 143 137 155 166 160 185 195 166 166 164 169 176 163 161 156 155 160 163 164 164 163 165 166 167 171 172 171 172 172 173 173 171 170 170 169 169 168 166 166 170 171 172 173 173 172 171 172 174 173 174 178 179 181 184 188 188 186 184 181 179 179 182 188 192 191 191 196 197 191 186 181 178 171 163 162 169 185 190 193
14 2 116 144 170 192 196 175 158 169 167 164 165 155 155 151 148 145 132 133 156 161 162 164 233 176 168 163 174 174 157 164 161 156 160 161 160 162 162 163 164 166 170 170 169 173 173 173 172 169 170 170 167 167 167 168 168 170 173 176 178 176 174 176 181 184 183 183 185 185 187 188 187 186 187 189 189 189 187 190 195 195 193 195 200 200 194 187 183 185 176 165 174 179 181 189 202
302 294 291 164 174 196 193 176 160 165 156 168 168 145 160 156 145 145 136 146 159 156 176 183 191 182 170 163 174 172 156 166 164 155 155 156 157 160 160 162 164 166 168 169 169 172 173 174 173 171 174 175 173 171 170 172 176 177 178 181 182 181 182 185 188 191 188 188 191 192 191 188 186 187 189 190 192 195 193 196 199 193 194 200 199 198 193 186 184 188 183 184 198 194 187 192 199
260 267 287 174 185 199 183 162 162 168 145 154 154 133 156 153 133 144 143 154 167 169 178 186 197 185 165 154 172 173 156 164 166 153 150 151 155 159 159 160 162 163 167 169 171 173 173 175 175 174 175 175 176 174 171 174 181 183 182 182 187 190 193 194 193 194 190 189 193 195 192 187 186 189 190 189 191 195 197 199 198 193 196 202 199 196 191 186 186 188 188 204 215 204 195 200 195
248 250 299 245 205 149 141 146 161 169 138 141 147 130 142 144 133 148 158 167 176 170 158 162 201 186 170 159 173 175 157 160 169 158 150 150 155 160 160 159 161 163 166 169 172 175 174 175 177 176 176 175 174 172 172 175 181 184 180 181 188 188 188 191 194 195 192 190 192 194 193 189 188 188 189 189 189 192 197 197 192 191 197 202 203 197 189 186 186 186 193 217 228 229 212 200 198
244 231 149 228 174 131 144 168 170 173 124 136 135 110 118 139 137 157 174 173 151 134 105 27 260 206 192 184 173 180 164 163 171 165 154 152 156 162 161 159 160 163 165 168 172 175 175 177 178 178 179 180 177 176 176 176 181 185 181 177 181 181 178 180 186 190 191 192 192 192 194 195 192 188 189 192 194 197 199 199 192 190 194 195 201 201 195 191 185 188 212 229 247 265 258 229 206
248 213 172 187 162 161 178 160 165 161 99 129 122 85 92 160 163 179 172 146 126 129 134 215 245 238 236 218 201 215 185 169 170 167 159 155 157 162 162 159 160 163 166 169 173 175 177 179 181 181 182 183 183 183 180 178 180 184 184 175 171 175 174 170 174 181 187 193 192 191 194 199 198 197 198 199 202 204 203 205 198 195 200 195 200 207 203 198 191 197 209 214 243 271 270 249 220
261 223 187 183 165 167 168 151 160 147 114 163 144 97 280 188 178 191 170 162 174 161 167 199 216 213 221 226 215 220 227 188 173 168 162 159 158 161 163 161 162 165 168 171 174 175 179 180 182 183 184 185 186 187 183 179 179 182 185 180 170 169 169 171 176 182 188 193 192 191 193 199 204 204 206 205 206 208 207 209 204 204 208 203 203 205 205 207 206 212 211 215 245 259 265 248 229
254 233 183 176 166 156 162 165 171 162 160 189 183 116 128 191 200 199 183 181 184 173 184 195 197 201 203 212 217 207 219 209 178 169 164 163 159 159 163 164 165 168 169 171 172 174 179 180 182 184 185 187 187 187 185 183 183 183 187 186 181 178 176 178 186 191 194 197 196 195 193 198 203 203 205 205 207 211 208 207 208 210 209 204 204 204 209 214 216 225 226 235 253 242 244 249 246
235 245 164 158 169 166 168 175 184 181 124 175 198 120 108 197 207 185 180 189 191 186 196 197 192 201 202 205 215 205 202 204 182 173 166 166 163 160 165 168 168 170 169 169 171 173 177 180 183 185 186 188 187 186 187 189 189 187 189 192 189 189 188 186 191 196 198 200 201 200 198 200 202 201 203 202 205 212 211 208 208 210 208 202 201 205 211 215 221 230 230 236 245 238 238 249 252
235 237 149 151 175 171 162 170 188 206 89 159 206 156 98 221 196 166 176 192 202 200 200 198 193 198 202 200 209 210 201 193 188 180 169 168 168 164 167 168 169 170 169 170 172 174 177 180 182 184 186 187 186 187 191 194 194 193 196 197 192 192 195 194 196 198 198 198 201 203 203 205 204 203 204 203 206 212 215 216 214 211 209 203 202 205 206 214 225 227 227 233 239 242 245 243 245
241 210 136 131 170 158 151 170 180 169 143 189 201 171 112 226 194 161 176 200 210 207 201 201 196 195 197 196 201 208 204 192 195 191 173 171 171 169 168 168 169 171 172 173 174 176 177 180 181 183 186 187 186 189 194 197 199 198 196 194 192 192 195 195 196 197 197 196 199 202 204 206 204 202 204 207 214 216 215 218 217 212 207 202 203 208 209 217 223 220 228 236 235 238 237 230 231
244 210 123 64 56 116 148 174 154 140 222 220 204 178 129 164 207 180 192 204 198 195 195 198 197 195 193 192 195 199 201 195 195 194 178 173 171 169 169 169 169 171 173 174 175 176 178 180 182 183 187 188 188 192 197 199 200 199 194 188 188 190 190 191 193 196 196 196 201 203 202 202 200 202 207 213 219 220 217 217 214 211 210 211 212 218 221 221 218 219 231 234 226 226 226 222 222
231 143 107 66 349 45 115 156 154 177 233 225 205 181 145 170 212 203 214 212 184 187 191 191 194 195 192 191 193 195 198 195 193 190 179 175 171 168 169 171 171 170 172 174 176 177 178 181 183 184 188 190 192 194 197 200 201 200 196 189 187 188 188 190 195 199 199 199 203 203 200 198 199 205 213 217 221 222 221 219 214 211 216 221 221 227 230 221 219 224 229 227 221 219 220 219 220
170 108 91 96 298 18 124 178 181 205 247 215 180 168 172 220 216 204 209 204 184 190 191 187 189 188 187 191 191 193 198 195 193 186 176 175 173 170 169 170 171 171 173 175 177 178 179 181 184 185 188 191 194 196 198 200 202 203 199 192 191 192 192 195 199 202 202 203 205 201 197 196 199 207 215 219 220 221 222 220 216 215 218 220 221 226 226 217 216 221 222 226 223 218 220 222 223
140 150 123 124 143 93 190 218 157 200 247 191 158 161 199 250 300 238 209 194 184 187 187 186 187 184 183 187 189 192 199 198 195 188 178 174 177 176 172 171 173 174 176 177 177 179 180 182 184 186 188 191 194 197 198 199 203 205 198 192 194 195 195 199 202 202 202 204 205 201 197 196 198 205 213 219 221 222 224 221 217 218 219 223 226 225 222 216 217 221 223 226 221 216 219 221 224
190 183 137 129 162 143 178 204 160 196 224 94 135 160 219 196 276 293 230 174 165 168 172 178 180 183 178 180 186 191 199 202 194 190 182 172 176 180 176 173 174 177 178 177 176 178 180 182 185 186 188 191 194 197 198 199 203 205 200 195 196 198 198 200 202 202 201 203 204 203 203 202 202 206 211 219 224 224 225 220 216 220 224 229 231 225 222 223 224 226 228 227 221 217 218 217 221
278 184 120 134 187 152 154 195 180 178 160 52 70 146 293 207 249 312 20 109 142 156 156 167 173 174 170 174 187 189 194 201 197 192 188 176 177 181 180 177 177 180 180 178 177 179 181 183 186 187 189 191 194 197 198 200 203 205 204 201 201 201 200 200 203 203 199 198 200 202 205 206 208 211 213 218 223 222 222 218 215 221 228 233 232 226 224 225 224 222 224 228 224 219 223 222 220
287 38 166 215 181 129 130 250 259 112 122 70 32 106 307 255 298 337 37 106 143 160 161 171 172 167 171 179 187 188 186 193 197 180 128 101 146 175 182 178 177 180 181 178 178 180 182 184 185 188 190 191 193 197 198 200 203 206 206 205 204 204 202 201 203 204 200 197 198 201 204 208 212 215 217 222 226 224 221 220 218 221 228 232 232 228 226 224 221 219 221 226 226 222 230 233 230
137 212 240 238 151 106 106 197 350 38 110 108 30 87 336 88 74 323 340 146 178 183 171 173 171 168 176 184 181 183 179 174 143 87 65 46 43 40 200 180 174 179 181 180 181 182 184 185 186 186 189 191 193 196 198 201 204 206 207 206 205 206 205 203 205 207 206 204 206 207 207 212 217 217 219 223 229 229 226 227 227 224 225 229 230 230 230 227 224 224 226 228 229 229 234 236 238
135 172 238 167 147 165 85 156 164 84 117 109 14 4 10 66 311 315 314 283 310 252 181 169 169 165 159 154 149 143 128 109 87 93 97 105 148 200 227 67 66 62 76 143 168 175 179 184 187 187 190 193 194 196 197 201 204 206 207 207 207 208 208 207 208 209 211 212 215 214 210 213 218 217 217 218 225 231 230 231 231 227 226 228 231 233 235 231 228 232 235 235 234 233 236 237 240
35 40 12 84 142 171 171 176 169 132 134 141 70 354 298 254 242 288 334 7 2 330 263 146 131 123 103 94 97 86 82 81 81 95 116 151 161 160 93 73 71 66 61 87 126 150 164 174 183 187 191 192 192 194 196 199 203 205 207 209 210 211 210 210 211 211 213 215 218 216 211 212 214 215 215 215 220 227 227 225 224 224 228 231 232 236 238 234 231 234 239 242 239 235 241 244 244
19 28 346 271 24 46 183 268 186 125 135 148 125 197 269 277 238 172 41 57 41 351 343 62 77 72 68 66 69 64 63 68 79 97 113 120 100 94 106 113 118 134 154 159 165 175 179 180 185 189 190 188 188 192 195 198 203 205 207 210 212 214 214 214 214 214 215 216 219 219 214 213 216 219 218 215 217 221 224 223 221 221 227 234 236 238 240 237 234 237 241 242 240 238 245 249 247
124 122 216 192 118 106 97 303 302 87 115 147 145 183 258 345 354 69 59 41 35 21 24 55 64 67 65 56 55 56 54 57 72 95 103 101 101 105 121 129 130 141 158 167 171 177 180 183 189 191 187 182 184 191 194 195 198 203 210 213 214 216 217 218 218 218 218 219 221 222 220 219 220 221 221 219 218 220 223 226 224 223 227 233 239 240 241 241 241 243 245 244 242 240 242 248 253
Height
790 792 792 794 794 795 797 798 812 814 814 828 823 820 819 811 810 813 816 812 809 807 803 802 800 803 808 809 811 811 812 817 821 828 833 822 816 822 824 826 828 828 830 831 832 833 834 835 835 836 837 837 838 838 839 839 839 839 839 839 838 838 838 838 838 839 840 840 841 840 840 839 839 839 838 837 838 840 841 841 840 840 841 842 843 843 843 844 844 845 845 846 846 847 847 847 847
791 792 792 794 793 797 800 798 817 822 821 830 822 818 817 811 813 815 815 809 806 804 801 802 801 806 808 803 803 808 815 815 810 814 818 816 820 824 824 827 828 829 831 832 833 834 835 835 836 837 838 839 839 840 840 840 840 840 840 840 839 839 839 839 839 840 841 841 842 842 841 840 840 840 840 840 840 841 842 842 841 842 842 843 844 844 844 845 845 846 846 847 847 848 848 848 848
792 793 793 795 794 797 800 801 819 827 827 832 824 815 813 817 818 814 810 804 802 800 802 805 805 811 812 808 807 814 822 816 809 811 816 819 820 823 826 827 829 831 832 833 834 834 835 836 838 839 839 840 840 841 841 841 841 841 841 841 841 840 840 840 841 841 842 842 842 842 842 841 841 841 841 841 842 843 843 842 843 844 844 845 845 846 846 846 847 847 847 848 848 848 848 849 849
792 793 793 795 797 800 805 811 819 824 830 831 825 815 813 820 816 812 808 802 801 802 805 806 810 812 810 813 812 815 821 817 811 810 815 820 819 823 826 828 830 831 833 834 835 835 837 837 839 840 840 841 841 841 841 841 841 842 842 842 842 842 842 842 842 843 843 843 843 843 843 842 842 842 842 842 843 843 843 843 844 845 846 846 846 847 847 847 848 848 848 849 849 849 850 850 851
792 794 794 795 803 806 807 816 818 823 828 824 823 817 812 815 812 810 808 804 803 806 805 803 812 811 806 809 809 815 819 817 815 810 814 819 820 824 826 829 831 832 834 835 836 837 838 839 840 841 842 842 842 842 842 842 842 843 843 843 843 843 843 843 844 844 844 844 843 843 843 843 843 843 843 843 844 844 844 845 845 846 847 848 848 848 848 849 849 849 849 850 850 851 851 851 852
792 793 793 794 800 802 810 821 822 824 820 814 819 817 811 810 811 810 809 807 804 805 802 801 809 809 810 809 806 812 813 813 815 813 814 818 821 825 827 830 832 833 835 836 837 838 839 840 841 842 843 843 843 844 844 844 844 844 844 844 844 845 845 845 845 845 845 845 844 844 844 844 844 844 844 844 844 845 845 846 846 847 848 849 849 849 849 851 851 851 851 851 852 852 852 853 854
792 795 796 799 801 801 817 826 823 824 814 810 816 814 810 808 810 809 810 812 808 805 799 800 800 804 817 812 812 813 810 812 812 814 816 819 823 826 829 831 833 834 836 837 838 839 841 841 842 843 843 844 845 845 845 845 845 845 845 845 846 846 846 847 847 847 847 847 845 844 844 845 845 845 845 845 845 846 846 847 848 848 849 850 850 850 851 852 852 852 852 852 853 853 854 854 855
792 797 798 805 811 809 819 823 819 820 813 809 810 809 808 806 808 807 810 812 808 804 801 802 795 805 820 813 819 818 811 815 812 816 818 820 824 827 830 832 834 835 837 838 839 841 841 842 843 844 844 845 846 846 846 846 846 846 846 846 847 847 848 848 848 849 848 848 847 844 844 846 847 846 846 846 846 847 847 848 849 849 850 851 851 852 853 853 853 853 854 854 854 854 855 855 856
792 797 800 808 816 816 819 819 816 815 811 808 806 806 805 804 806 807 809 807 803 802 802 802 795 808 822 817 822 818 813 818 816 819 819 822 826 828 832 832 834 835 837 839 840 842 842 844 844 845 845 846 847 847 847 847 847 847 847 847 848 848 849 849 849 850 850 850 848 845 844 847 848 847 847 847 848 848 848 849 850 851 851 852 853 853 854 854 854 855 855 856 856 856 856 857 858
794 798 803 810 817 820 822 819 816 815 811 806 806 806 804 803 806 806 807 805 801 803 803 800 799 808 820 822 824 819 817 819 818 821 822 825 827 829 832 833 835 835 838 839 841 842 843 845 845 846 847 847 848 847 848 848 848 848 848 848 849 849 850 851 851 851 851 851 850 846 845 848 849 849 848 848 849 849 850 850 851 852 852 853 854 854 855 855 856 856 857 857 857 857 858 858 859
800 800 800 812 819 823 824 821 819 816 810 807 807 805 804 803 805 806 805 806 801 803 804 802 807 810 817 824 825 820 819 821 820 822 824 826 828 830 832 834 836 837 838 839 841 843 844 846 846 847 848 848 848 848 849 848 849 849 849 849 850 851 851 852 852 852 852 852 851 849 847 849 851 850 850 850 850 850 851 852 852 853 854 854 855 856 856 857 857 858 858 858 859 859 859 860 860
805 804 803 817 822 821 820 820 821 815 812 811 811 806 804 803 805 806 806 808 802 805 805 803 808 807 819 829 824 822 821 823 823 823 825 827 829 831 833 835 837 838 840 840 842 843 845 846 847 848 848 849 849 849 849 849 849 849 850 850 851 852 852 853 853 853 853 854 854 851 849 850 852 852 851 851 851 852 853 853 854 855 855 856 856 857 858 858 859 859 860 860 860 860 860 861 861
803 806 808 818 815 816 817 818 818 816 817 813 810 805 802 803 807 808 807 807 804 808 807 800 802 803 819 829 823 823 822 823 824 824 826 828 830 832 834 835 838 840 841 842 843 844 846 847 847 848 849 849 849 850 850 850 850 850 851 851 852 853 853 854 854 854 855 855 856 854 850 850 853 853 853 853 853 854 854 855 855 856 856 857 858 858 859 860 860 861 861 861 861 862 862 862 863
799 801 808 816 812 814 818 818 817 818 821 811 806 805 803 806 809 808 806 808 807 806 804 798 798 805 819 826 827 825 821 823 824 826 827 828 831 832 835 836 839 840 842 843 844 845 846 847 848 849 849 850 850 850 851 851 851 851 852 852 853 854 854 855 855 855 856 857 857 856 852 850 852 854 854 855 855 855 856 856 857 857 858 858 859 860 861 861 862 862 862 862 862 863 863 864 864
794 798 805 815 815 816 816 817 815 817 819 809 806 805 806 808 808 808 805 808 807 797 798 800 798 807 818 822 826 821 818 822 823 826 827 829 831 833 836 837 840 841 843 844 845 846 847 848 848 849 850 850 851 851 852 852 852 853 853 854 854 855 855 856 856 856 856 857 858 858 855 852 853 854 855 856 856 857 857 857 858 859 859 860 860 861 862 863 863 863 863 863 864 864 865 865 865
789 795 805 815 817 818 815 813 812 815 815 807 805 803 808 810 805 805 801 802 805 796 798 804 799 804 812 814 816 814 816 821 823 826 828 830 833 835 837 838 841 842 843 845 846 847 847 848 849 850 850 851 852 852 853 853 853 854 854 855 855 856 856 857 857 857 857 857 858 859 858 855 854 855 857 857 858 858 858 858 859 860 861 861 862 862 863 864 864 864 864 865 865 866 866 866 866
787 796 809 816 817 816 812 810 810 811 809 805 806 804 808 811 805 800 796 798 803 801 802 804 801 802 808 810 812 813 817 821 823 826 828 831 833 835 839 840 842 843 844 845 846 848 848 849 849 850 851 851 852 852 853 854 854 855 855 856 856 857 857 858 857 858 858 858 859 860 860 858 856 856 857 858 859 860 860 860 860 861 862 862 863 864 864 864 865 865 865 866 867 867 867 867 868
792 804 812 814 814 811 805 805 803 802 805 805 806 805 805 808 805 798 799 803 802 804 806 804 804 805 808 810 812 815 818 821 823 825 828 831 832 835 838 840 842 843 845 846 847 848 848 849 850 850 851 852 852 853 854 854 855 855 856 856 857 857 857 858 858 858 859 859 860 860 861 860 859 858 857 859 859 860 861 861 861 862 863 863 864 865 865 865 866 866 867 867 868 868 868 868 869
795 804 811 811 807 802 796 797 797 797 801 802 802 803 804 805 801 798 805 809 804 809 811 807 809 810 811 812 815 818 819 821 823 825 827 830 832 834 837 839 841 842 844 846 847 848 848 849 850 850 851 852 853 853 854 855 855 856 856 857 857 858 859 859 859 860 860 860 861 861 861 862 861 861 860 860 860 861 861 862 862 863 864 864 865 865 866 866 867 868 868 869 869 870 870 870 870
793 799 809 806 798 796 792 793 794 793 795 798 801 801 805 806 798 798 804 808 807 811 811 809 813 814 813 814 815 818 819 822 823 825 828 829 832 833 836 838 839 842 844 845 846 848 849 849 850 851 851 853 853 854 855 855 856 856 857 857 858 859 859 860 861 861 861 862 862 862 862 862 863 863 862 862 862 862 862 863 863 864 864 865 866 866 867 868 868 869 869 870 870 871 871 871 871
792 795 803 797 790 795 792 790 791 790 792 796 799 801 805 802 795 797 800 808 812 809 805 805 809 811 812 813 814 818 820 822 824 826 828 830 832 834 836 837 839 841 843 845 846 847 849 850 850 851 852 852 854 854 855 856 856 857 857 858 859 859 860 861 861 862 862 862 863 863 863 863 864 864 864 863 863 863 863 864 864 865 865 866 867 867 868 868 869 869 870 870 871 871 872 872 872
793 793 793 789 788 794 790 786 789 790 791 795 798 799 800 796 795 797 798 807 810 803 800 800 802 805 808 811 813 817 820 822 824 826 828 830 832 834 836 837 839 841 842 844 845 847 849 850 850 851 852 853 854 854 855 856 857 857 858 858 859 860 861 862 862 863 863 863 863 864 864 864 865 865 865 865 865 865 865 865 865 866 866 867 868 868 869 869 870 870 871 871 872 872 872 872 873
794 795 788 786 786 790 787 785 788 789 793 796 796 794 792 796 799 795 797 803 800 794 795 797 800 803 806 810 813 817 820 822 824 825 827 829 831 832 834 836 838 840 842 844 845 847 849 849 851 851 852 853 854 855 856 856 857 858 859 859 860 861 862 862 863 863 863 864 864 865 865 865 865 865 866 866 866 866 866 867 867 867 867 868 869 869 870 870 871 871 872 872 872 873 873 873 873
791 795 788 785 783 785 785 785 788 788 793 793 790 791 793 799 800 798 802 802 795 792 793 796 800 803 807 810 813 817 820 822 824 826 827 828 830 832 833 835 837 839 841 843 845 846 848 849 850 851 852 853 854 855 856 856 857 858 859 860 861 861 862 863 863 864 864 865 865 866 866 866 866 866 867 867 868 868 868 868 868 869 869 869 869 870 871 871 872 872 872 872 872 872 872 873 873
790 791 786 782 782 784 784 786 789 789 791 789 789 795 796 796 796 803 810 805 798 794 793 797 801 804 808 812 815 817 819 822 824 825 827 829 830 832 834 835 836 839 840 842 844 846 848 849 850 851 852 853 854 855 856 856 857 858 859 860 861 862 862 863 864 865 865 865 866 866 867 867 867 868 868 868 869 869 869 869 869 870 870 870 870 871 871 871 872 872 872 872 872 872 872 872 873
785 784 782 781 783 786 788 789 791 791 790 788 793 799 799 797 797 810 813 807 803 797 796 799 802 807 810 813 815 817 819 821 823 825 827 828 830 832 833 835 836 838 839 841 843 845 847 848 850 851 852 853 854 855 856 856 857 858 859 861 861 862 863 864 865 865 866 866 866 867 868 868 868 869 869 869 869 869 869 870 870 870 871 871 871 871 871 871 872 872 872 872 872 872 872 872 872
775 779 782 784 787 789 793 796 797 794 790 789 796 802 804 801 803 817 814 805 803 798 799 801 803 809 811 813 814 816 819 820 822 824 826 828 829 831 832 834 836 837 839 841 843 845 846 848 849 851 852 853 854 855 856 856 857 858 860 861 862 862 863 864 865 866 866 867 867 868 868 869 869 869 869 870 870 870 870 870 871 871 871 871 872 872 872 872 872 872 872 872 872 872 872 872 873
770 777 785 790 791 794 798 803 805 801 795 791 795 802 808 807 810 817 811 805 803 800 803 803 805 810 810 813 814 815 818 819 822 823 825 827 828 829 831 833 835 836 838 839 842 844 846 848 849 850 852 853 854 855 855 856 858 859 860 861 862 863 863 864 865 866 867 867 868 868 869 869 870 870 870 870 870 871 871 871 871 871 872 872 873 873 873 873 872 872 872 872 873 872 873 873 874
770 776 791 798 795 801 804 805 806 806 804 793 792 809 818 817 817 815 808 805 804 803 806 805 806 809 810 813 814 815 817 818 821 822 823 825 827 828 830 832 833 835 837 838 841 843 845 847 849 850 851 853 854 854 855 856 858 859 860 861 862 863 864 865 866 867 867 868 868 869 869 870 870 870 870 871 871 871 871 872 872 872 872 873 873 873 874 874 873 873 873 873 873 873 873 873 874
775 779 790 801 806 811 805 802 802 805 808 795 796 821 829 822 817 812 808 806 806 809 809 807 807 809 811 813 814 815 815 817 819 820 822 824 826 827 828 831 832 835 837 838 840 842 845 847 848 850 851 852 853 854 855 856 858 859 860 861 862 863 864 865 866 867 867 868 869 869 870 870 870 871 871 871 871 872 872 872 872 872 873 873 874 874 874 874 874 874 873 873 873 873 874 874 874
780 789 794 803 815 817 803 801 803 804 808 798 802 823 829 823 815 810 808 806 808 812 810 808 808 809 811 812 813 815 814 815 817 818 821 822 825 827 828 830 832 834 836 837 840 841 844 846 847 849 850 852 853 854 855 856 857 858 860 861 862 864 864 866 866 867 868 868 869 869 870 870 871 871 871 872 872 872 872 873 873 873 873 874 874 874 874 874 874 874 874 874 873 873 874 874 874
781 798 812 808 810 814 804 800 800 803 805 799 805 820 824 821 815 808 806 806 808 812 812 809 808 809 811 812 813 815 813 813 815 817 820 821 824 826 828 829 831 833 835 837 839 841 844 845 847 848 850 852 853 854 855 855 857 858 860 861 862 864 865 866 867 867 868 869 869 869 870 870 871 871 872 872 873 873 873 873 874 874 874 874 874 874 875 875 875 875 874 874 874 874 874 874 874
783 795 816 811 807 815 811 803 796 796 802 801 806 817 820 817 813 808 805 805 808 811 812 810 809 809 810 812 812 813 813 813 814 816 818 821 823 825 827 828 830 832 834 836 839 841 843 844 846 848 849 851 852 854 855 856 857 858 860 861 862 863 865 866 867 868 868 869 869 870 870 870 871 871 872 873 873 874 874 874 874 874 874 874 875 875 875 875 875 875 875 875 875 874 875 874 875
789 792 805 804 805 813 813 808 798 794 801 804 805 810 814 812 810 809 806 805 808 811 813 811 809 808 808 810 812 812 813 814 814 814 817 819 821 824 825 827 829 832 834 836 838 840 842 844 846 847 849 851 852 854 855 856 857 858 860 861 862 863 865 866 867 868 869 869 870 870 870 871 871 871 872 873 873 874 874 875 875 875 875 875 875 876 876 876 876 876 876 875 875 875 875 875 875
791 794 801 806 807 810 809 805 797 794 801 806 807 810 812 810 808 809 807 807 810 811 812 812 809 808 808 810 811 812 813 814 813 813 816 818 821 823 824 826 828 831 834 835 837 840 842 843 845 847 849 850 852 853 855 856 857 859 860 861 862 863 865 866 867 868 869 870 870 870 871 871 872 872 872 873 873 874 874 875 875 876 876 876 876 876 876 876 876 876 876 876 876 876 876 875 875
788 788 794 805 808 807 802 797 790 791 801 807 807 810 812 811 810 809 809 808 811 812 811 812 811 809 808 810 811 811 813 813 811 812 815 817 820 822 823 825 828 830 833 835 837 839 841 843 845 847 848 850 852 853 855 856 857 859 860 861 862 863 864 866 867 868 868 870 870 871 871 872 872 873 873 873 873 874 875 875 876 876 876 876 877 877 877 877 876 876 876 876 876 876 876 876 876
783 784 788 796 802 802 795 793 789 787 801 809 805 808 811 810 811 810 809 809 810 813 813 812 812 811 809 809 810 811 812 811 810 811 813 816 819 820 823 825 827 830 832 834 836 838 840 842 844 846 848 849 851 852 854 855 856 858 859 860 861 862 864 865 866 867 868 869 870 871 871 872 873 873 874 874 874 875 875 875 876 876 877 877 877 877 877 877 876 877 876 876 876 876 876 876 876
782 785 788 792 797 795 788 789 789 785 799 810 804 810 815 811 813 811 808 810 810 811 813 813 812 811 810 810 810 810 810 809 809 811 812 814 818 820 822 825 826 829 831 832 835 837 839 841 843 845 847 848 850 851 853 854 855 857 858 859 860 862 863 864 866 867 868 869 870 870 871 872 873 874 874 874 875 875 875 876 876 876 877 877 878 878 877 877 877 877 877 877 877 876 876 876 876
783 785 788 792 790 791 791 790 788 787 799 810 808 814 819 813 812 812 810 810 809 809 810 811 813 812 811 811 810 809 810 810 810 810 811 813 816 819 822 824 825 827 830 832 834 836 838 840 842 844 846 848 849 851 852 853 855 856 858 859 860 861 862 863 865 866 867 868 869 870 871 872 873 874 874 875 875 875 876 876 876 877 877 877 878 878 877 877 877 878 878 878 877 877 877 876 876
783 785 790 792 787 793 800 796 792 790 797 807 810 817 822 817 815 813 810 809 808 809 810 810 810 811 810 809 808 809 809 810 811 809 810 812 815 818 820 822 824 827 829 831 833 835 837 839 841 843 846 847 849 851 852 853 855 856 858 859 860 861 862 864 865 866 867 868 869 870 871 872 873 874 874 875 875 875 875 876 876 876 877 877 877 877 878 878 878 878 878 878 878 878 878 877 877
782 781 785 789 786 787 791 792 793 794 798 801 808 826 830 822 822 819 811 810 811 811 811 811 809 807 808 808 807 808 808 808 809 809 809 810 813 816 818 821 823 826 828 830 832 834 836 838 840 842 844 847 849 851 852 854 855 856 858 859 860 861 862 863 864 866 867 867 868 869 870 871 872 873 874 874 874 875 875 875 876 876 876 877 877 877 878 878 878 879 879 879 879 879 879 878 878
783 776 774 777 780 781 785 790 796 809 819 806 802 832 842 825 823 822 813 814 816 813 812 812 811 807 807 809 808 807 807 805 805 806 807 809 811 815 817 819 822 824 826 829 831 833 835 837 839 841 843 845 848 850 852 853 854 856 857 858 859 860 861 862 863 864 866 867 868 869 870 870 871 872 873 874 874 875 875 875 876 876 876 877 877 878 878 878 879 879 879 879 879 879 879 879 878
786 771 761 767 773 777 785 791 798 813 820 802 792 819 842 834 824 819 814 815 816 814 814 811 810 810 808 809 807 806 807 805 803 804 805 808 810 813 816 818 820 823 825 828 830 832 834 837 839 841 842 844 847 849 851 853 854 855 856 857 858 859 860 861 862 864 865 866 867 868 869 870 871 872 873 874 874 874 875 875 875 876 876 877 877 878 878 879 879 879 879 879 879 879 879 879 878
781 760 755 767 771 775 782 786 795 799 797 798 794 803 832 840 824 814 812 816 817 815 815 811 809 809 807 806 805 804 804 803 803 803 804 806 808 810 813 816 818 821 824 827 829 831 833 836 838 840 842 844 846 848 850 852 853 854 855 856 858 859 860 861 862 863 865 866 867 868 869 870 870 871 872 873 874 874 875 875 875 876 876 877 877 878 878 879 879 879 879 879 879 879 879 879 879
766 751 754 762 764 769 775 782 792 791 796 816 808 797 826 841 821 811 814 818 820 816 812 810 807 806 805 805 803 802 801 800 801 802 802 804 806 808 811 814 817 819 822 825 827 830 833 835 838 840 842 843 845 847 849 851 852 853 854 855 857 858 859 860 862 863 864 865 866 867 868 869 870 871 872 873 873 874 874 875 875 876 876 877 877 878 878 878 879 879 879 879 879 879 879 879 879
752 746 752 756 759 767 772 781 789 793 807 823 809 795 820 839 823 816 822 821 817 812 807 805 803 802 802 802 801 799 798 799 799 799 800 802 804 807 809 812 816 818 820 823 826 829 832 835 837 839 841 843 845 847 848 850 851 853 854 854 855 857 858 860 861 862 863 864 865 866 867 868 869 870 871 872 873 873 874 874 875 875 876 876 877 877 878 878 878 879 879 879 879 879 879 879 879
744 748 755 758 763 767 773 777 783 806 822 813 798 790 806 830 828 816 813 804 798 801 803 802 799 798 799 799 798 797 797 797 798 798 799 800 802 805 808 811 814 816 819 822 825 828 830 833 836 838 840 842 844 846 847 849 851 852 852 853 854 856 857 858 860 861 862 863 864 865 866 867 868 869 870 871 872 872 873 874 874 875 876 876 877 877 877 878 878 878 878 879 879 879 879 879 879
746 754 760 769 776 775 782 785 790 819 825 798 787 787 794 819 823 806 795 786 783 790 795 796 796 796 796 796 796 795 794 795 796 797 798 798 801 803 806 809 812 815 818 821 823 826 829 831 834 837 839 841 843 844 846 848 849 851 852 852 853 855 856 857 858 860 861 862 862 864 865 866 868 869 870 870 871 872 873 873 874 875 875 876 876 877 877 877 877 878 878 878 878 878 879 879 879
752 759 765 783 797 796 801 803 803 813 804 781 780 787 797 807 800 787 784 780 780 782 783 787 790 793 794 794 794 793 793 794 794 796 797 797 799 801 804 807 810 813 815 818 821 824 828 830 832 835 837 839 841 843 845 847 848 850 851 852 853 854 856 857 858 859 860 861 861 863 864 865 867 868 869 870 870 871 872 873 874 874 875 876 876 877 877 877 877 877 878 878 878 878 878 879 879
758 764 770 788 803 813 820 814 808 806 792 777 774 784 801 802 788 781 778 775 776 777 779 782 784 788 790 790 791 792 792 792 793 794 795 795 797 800 802 804 807 810 813 816 819 823 826 829 831 833 836 838 840 842 844 846 848 849 851 852 853 854 855 856 858 858 859 860 861 862 863 864 866 867 868 869 870 871 872 872 873 874 875 875 876 876 876 877 877 877 877 878 878 878 878 878 879
758 756 762 778 787 801 813 809 806 802 791 784 782 792 808 805 794 787 776 771 773 776 779 780 782 785 786 788 790 791 792 791 791 793 793 793 795 798 801 803 805 809 811 814 818 821 825 827 830 832 834 837 840 842 844 845 847 849 851 852 853 854 855 856 857 858 859 860 861 862 863 864 865 866 867 868 869 870 871 872 873 874 874 875 875 876 876 876 877 877 877 878 878 878 878 878 879
759 751 760 773 770 775 788 790 787 783 788 800 804 808 810 799 792 785 775 774 775 777 780 782 784 785 786 790 791 790 791 791 790 792 792 792 794 797 800 802 805 807 810 813 816 819 823 826 828 831 833 836 838 841 843 845 847 849 850 852 853 854 855 856 857 858 859 860 861 862 863 864 865 866 867 868 869 870 871 872 873 873 874 875 875 875 876 876 876 877 877 877 878 878 878 878 879
761 760 766 763 753 760 778 785 778 774 796 815 814 814 809 797 794 786 779 780 779 780 782 782 785 786 787 791 790 789 789 789 790 792 794 795 796 798 799 802 805 807 809 812 815 818 821 824 827 830 833 835 837 840 842 845 847 849 850 852 853 853 854 855 856 857 859 860 861 862 863 864 865 866 867 867 868 869 870 871 872 873 873 874 874 875 876 876 876 877 877 877 878 878 878 878 879
761 768 763 752 751 759 771 788 790 790 811 822 816 818 816 810 809 796 786 786 785 784 783 783 785 786 788 790 788 788 787 787 791 794 799 804 803 801 801 803 806 808 810 811 814 817 820 823 825 828 832 834 836 839 841 844 846 848 850 851 853 854 854 855 856 857 858 859 860 861 862 863 864 865 866 867 868 868 869 870 871 872 873 873 874 874 875 876 876 877 877 877 878 878 878 878 879
750 756 750 755 772 777 776 788 796 802 821 830 825 824 821 819 818 807 798 796 793 790 785 784 786 786 789 791 789 789 788 790 793 795 799 803 803 802 803 807 810 813 815 816 818 821 822 824 825 826 828 830 834 837 840 843 845 847 849 851 852 854 855 856 857 857 858 859 859 860 861 862 863 864 865 866 867 867 868 869 870 871 872 872 873 874 875 875 876 877 877 877 878 878 878 878 878
744 748 751 756 768 775 775 780 784 794 817 833 836 833 823 817 815 811 806 801 801 802 794 788 790 790 791 793 793 793 793 794 796 798 800 801 802 803 805 809 812 814 819 821 823 824 824 824 825 825 827 829 832 836 839 842 844 846 849 850 852 854 855 856 856 857 858 858 859 859 860 861 861 862 863 864 865 866 867 868 869 871 871 872 872 873 874 875 875 876 876 876 877 877 878 877 878
756 761 764 764 763 766 771 773 772 780 805 827 838 838 826 812 808 809 806 801 802 809 806 799 796 797 797 797 797 797 797 797 798 800 802 802 804 805 804 807 809 812 815 817 819 820 819 821 822 823 827 831 834 837 839 842 844 846 848 849 851 853 854 856 856 856 857 857 858 859 859 860 860 861 862 863 864 865 866 867 868 870 870 871 872 872 873 873 874 875 875 875 876 876 876 876 877
759 765 766 766 766 770 783 788 777 774 793 812 824 835 829 813 806 806 807 807 805 806 809 807 803 802 802 802 801 801 800 800 800 801 802 803 805 806 805 805 808 811 814 814 815 817 818 820 822 824 828 832 835 836 838 840 843 846 848 849 851 852 853 855 855 856 856 856 857 858 859 860 860 860 861 862 862 863 864 865 866 868 869 869 870 871 872 872 873 873 874 874 875 875 875 875 876